Find Starlink 3131

NORAD ID: 49427 Int'l Des: 2021-104 Owner: SPXS Country: US Constellation: starlink operational
LEOCIRCULAR

Live Position

Loading 3D Globe...

About Starlink 3131

Description loading...

Upcoming Passes

Passes for default location (London). Set your location on the main map for personalized predictions.

Altitude History

Loading altitude history...

Two-Line Element Set

1 49427U 21104V 26126.56623022 -.00000603 00000-0 -19791-4 0 9999
2 49427 53.2172 329.3135 0001527 88.2667 271.8500 15.08837044247372
Epoch: May 6, 2026 • Age: 10 hours

Current Status

Altitude 541.0 km
Velocity 7.60 km/s
Sub-Earth Point 31.66°N, 100.85°W
Launch Date Nov 13, 2021
Age 4.4 years
Type internet

Technical Details

Classification Payload
Mass 290.00 kg
Dry Mass 270.00 kg
Total Mass 290.00 kg
Length 0.20 m
Diameter 2.80 m
Span 9.00 m
Shape Box + pan
Manufacturer SPXS
Bus Type Starlink
Phase Status In Orbit
Owner/State SPXS/US

Most Searched